Bettles, AK

5:24 AM AKDT on July 20, 2019 (GMT -0800)
Bettles

Weather History for PABT - May, 2019

Change the Weather History Date:

Saturday, May 11, 2019

  Actual Average Record
Temperature  
Mean Temperature 44 °F -  
Max Temperature 51 °F 49 °F 67 °F (1975)
Min Temperature 37 °F 31 °F 8 °F (1964)
Degree Days  
Heating Degree Days 21    
Moisture  
Dew Point 34 °F    
Average Humidity 72    
Maximum Humidity 89    
Minimum Humidity 50    
Precipitation  
Precipitation 0.01 in - - ()
Snow  
Snow 0.00 in - - ()
Snow Depth 20.00 in    
Sea Level Pressure  
Sea Level Pressure 29.65 in    
Wind  
Wind Speed 7 mph (East)    
Max Wind Speed 9 mph    
Max Gust Speed -    
Visibility 10 miles    
Events Rain    
Averages and records for this station are not official NWS values.
T = Trace of Precipitation, MM = Missing Value Source: NWS Daily Summary

Daily Weather History Graph

Daily Weather History Graph

Search for Another Location

Airport or City:

Astronomy

May. 11, 2019 Rise Set
Actual Time 4:31 AM AKDT 11:37 PM AKDT
Civil Twilight 2:34 AM AKDT 1:30 AM AKDT
Nautical Twilight Sun does not set Sun does not set
Astronomical Twilight Sun does not set Sun does not set
Moon 10:57 AM AKDT (5/11) 5:24 AM AKDT (5/11)
Length of Visible Light 22h 55m
Length of Day
19h 05m
Waxing Crescent, 48% of the Moon is Illuminated
May 11
Waxing Crescent
May 11
First Quarter
May 18
Full
May 26
Last Quarter
Jun 3
New

Hourly Weather History & Observations

Time (AKDT) Temp. Windchill Dew Point Humidity Pressure Visibility Wind Dir Wind Speed Gust Speed Precip Events Conditions
12:53 AM 39.0 °F 33.4 °F 34.0 °F 82% 29.55 in 10.0 mi NE 8.1 mph - 0.00 in Rain Light Rain
1:53 AM 37.9 °F 32.1 °F 35.1 °F 89% 29.55 in 10.0 mi NE 8.1 mph - 0.00 in Rain Light Rain
2:13 AM 37.9 °F 32.1 °F 35.1 °F 89% 29.52 in 10.0 mi NNE 8.1 mph - 0.01 in Rain Light Rain
2:53 AM 37.9 °F 31.5 °F 34.0 °F 86% 29.55 in 10.0 mi NNE 9.2 mph - 0.01 in Rain Light Rain
3:37 AM 37.9 °F 32.1 °F 35.1 °F 89% 29.53 in 10.0 mi NE 8.1 mph - 0.00 in Rain Light Rain
3:53 AM 37.0 °F 32.4 °F 34.0 °F 89% 29.56 in 10.0 mi NNE 5.8 mph - 0.01 in Rain Light Rain
5:53 AM 37.0 °F 31.6 °F 34.0 °F 89% 29.57 in 10.0 mi NNE 6.9 mph - N/A   Mostly Cloudy
6:53 AM 37.9 °F 33.5 °F 34.0 °F 86% 29.58 in 10.0 mi NNE 5.8 mph - N/A   Mostly Cloudy
7:53 AM 39.0 °F 36.8 °F 34.0 °F 82% 29.59 in 10.0 mi North 3.5 mph - N/A   Mostly Cloudy
8:53 AM 43.0 °F 40.3 °F 35.1 °F 74% 29.60 in 10.0 mi North 4.6 mph - N/A   Partly Cloudy
9:53 AM 44.1 °F 42.5 °F 34.0 °F 68% 29.62 in 10.0 mi ESE 3.5 mph - N/A   Mostly Cloudy
10:53 AM 44.1 °F 40.8 °F 35.1 °F 71% 29.63 in 10.0 mi SSW 5.8 mph - 0.00 in   Mostly Cloudy
11:51 AM 42.8 °F 40.1 °F 35.6 °F 76% 29.62 in 10.0 mi Variable 4.6 mph - 0.00 in Rain Light Rain
11:53 AM 42.1 °F 39.2 °F 36.0 °F 79% 29.66 in 10.0 mi South 4.6 mph - 0.00 in Rain Light Rain
12:53 PM 43.0 °F 39.5 °F 36.0 °F 76% 29.68 in 10.0 mi SSE 5.8 mph - 0.00 in   Overcast
1:04 PM 42.1 °F 39.2 °F 36.0 °F 79% 29.64 in 10.0 mi SE 4.6 mph - 0.00 in Rain Light Rain
1:53 PM 43.0 °F 38.8 °F 36.0 °F 76% 29.69 in 10.0 mi SE 6.9 mph - 0.01 in   Overcast
2:53 PM 46.0 °F 43.9 °F 36.0 °F 68% 29.69 in 10.0 mi Variable 4.6 mph - N/A   Mostly Cloudy
4:53 PM 48.0 °F - 35.1 °F 61% 29.70 in 10.0 mi ESE 8.1 mph - N/A   Scattered Clouds
5:53 PM 48.9 °F - 34.0 °F 56% 29.70 in 10.0 mi SE 4.6 mph - N/A   Scattered Clouds
6:53 PM 50.0 °F - 33.1 °F 52% 29.71 in 10.0 mi ESE 5.8 mph - N/A   Scattered Clouds
7:53 PM 50.0 °F - 32.0 °F 50% 29.73 in 10.0 mi South 4.6 mph - N/A   Mostly Cloudy
8:53 PM 48.9 °F - 32.0 °F 52% 29.73 in 10.0 mi SSW 6.9 mph - N/A   Scattered Clouds
9:53 PM 45.0 °F 41.8 °F 33.1 °F 63% 29.75 in 10.0 mi SSE 5.8 mph - N/A   Mostly Cloudy
10:53 PM 42.1 °F 39.2 °F 34.0 °F 73% 29.78 in 10.0 mi SSE 4.6 mph - 0.00 in   Mostly Cloudy
11:53 PM 42.1 °F 38.4 °F 34.0 °F 73% 29.81 in 10.0 mi South 5.8 mph - N/A   Mostly Cloudy